(158362) = 2001 XW140 = 2004 NT17

Discovered at Socorro on 2001-12-14 by LINEAR.

Orbit

Orbit type: Main Belt

Note: WebGL enabled browser required.

epoch2024-03-31.0
epoch JD2460400.5
perihelion date2022-04-07.77145
perihelion JD2459677.27145
argument of perihelion (°)234.53673
ascending node (°)97.14343
inclination (°)6.29855
eccentricity0.1554090
perihelion distance (AU)1.9529079
Tisserand w.r.t. Jupiter3.6
ΔV w.r.t. Earth (km/sec)8.9
semimajor axis (AU)2.3122528
mean anomaly (°)202.73393
mean daily motion (°/day)0.28031790
aphelion distance (AU)2.672
period (years)3.52
P-vector [x]0.87543486
P-vector [y]-0.40026392
P-vector [z]-0.27092916
Q-vector [x]0.47091807
Q-vector [y]0.83259096
Q-vector [z]0.29159640
absolute magnitude16.89
phase slope0.15
uncertainty0
referenceMPEC 2024-E190
observations used574
oppositions17
arc length (days)8126
first opposition used2001
last opposition used2024
residual rms (arc-secs)0.72
perturbers coarse indicatorM-v
perturbers precise indicator003Ek
first observation date used2001-12-14.0
last observation date used2024-03-14.0
computer nameMPCLINUX
JD of orbit computation2456847.637905
perihelion JD uncertainty (days)4.3751E-05
argument of perihelion uncertainty (°)2.9198E-05
ascending node uncertainty (°)2.7417E-05
inclination uncertainty (°)3.0748E-06
eccentricity uncertainty 3.0714E-08
perihelion distance uncertainty (AU)7.4799E-08
Minimum Orbit Intersection Distances (in AU)
for orbit epoch: 2460400.5, reference: E2024-GF4
Mercury1.54204
Venus1.22557
Earth0.94955
Mars0.57619
Jupiter2.6561
Saturn6.5022
Uranus15.7858
Neptune27.5499

Observations

585 total observations over interval: 2001 12 14.23467 – 2024 03 14.328564
These data are available for download (format description).

Date (UT) J2000 RA J2000 Dec Magn Location Ref
2001 12 14.23467 04 03 01.04 +15 46 38.7 20.4   704 – Lincoln Laboratory ETS, New Mexico MPS 45301
2001 12 14.24979 04 03 00.24 +15 46 40.8 20.4   704 – Lincoln Laboratory ETS, New Mexico MPS 45301
2001 12 14.26520 04 02 59.37 +15 46 41.4 20.2   704 – Lincoln Laboratory ETS, New Mexico MPS 45301
2001 12 14.28050 04 02 58.48 +15 46 43.0 20.2   704 – Lincoln Laboratory ETS, New Mexico MPS 45301
2001 12 17.21848 04 00 23.19 +15 50 53.6 20.1   704 – Lincoln Laboratory ETS, New Mexico MPS 45301
2001 12 17.23402 04 00 22.37 +15 50 55.3 20.4   704 – Lincoln Laboratory ETS, New Mexico MPS 45301
2001 12 17.24929 04 00 21.57 +15 50 56.9 20.2   704 – Lincoln Laboratory ETS, New Mexico MPS 45301
2001 12 17.26438 04 00 20.76 +15 50 58.6 19.8   704 – Lincoln Laboratory ETS, New Mexico MPS 45301
2001 12 17.27948 04 00 19.91 +15 51 00.7 20.0   704 – Lincoln Laboratory ETS, New Mexico MPS 45301
2001 12 20.23809 03 57 58.01 +15 55 56.2 20.2   704 – Lincoln Laboratory ETS, New Mexico MPS 46913
2001 12 20.25333 03 57 57.25 +15 55 58.0 20.6   704 – Lincoln Laboratory ETS, New Mexico MPS 46913
2001 12 20.28433 03 57 55.84 +15 56 00.4 20.1   704 – Lincoln Laboratory ETS, New Mexico MPS 46913
2003 03 23.177700 11 39 23.018 +12 53 11.61 20.53 V 645 – Apache Point-Sloan Digital Sky Survey MPS 136937
2003 03 23.181172 11 39 22.809 +12 53 12.84 21.31   645 – Apache Point-Sloan Digital Sky Survey MPS 136937
2004 07 13.39846 22 12 50.07 -17 52 51.8 18.7   644 – Palomar Mountain/NEAT MPS 110788
2004 07 13.40907 22 12 50.03 -17 52 56.3 18.7   644 – Palomar Mountain/NEAT MPS 110788
2004 07 13.42920 22 12 49.96 -17 53 04.5 18.5   644 – Palomar Mountain/NEAT MPS 110788
2004 07 16.39166 22 12 36.92 -18 13 50.2 19.4   704 – Lincoln Laboratory ETS, New Mexico MPS 110788
2004 07 16.40216 22 12 36.83 -18 13 53.9 19.3   704 – Lincoln Laboratory ETS, New Mexico MPS 110788
2004 07 16.42335 22 12 36.63 -18 14 05.0 19.8   704 – Lincoln Laboratory ETS, New Mexico MPS 110788
2004 08 08.29591 22 01 48.00 -21 30 12.8 18.8   704 – Lincoln Laboratory ETS, New Mexico MPS 112932
2004 08 08.30536 22 01 47.55 -21 30 17.6 19.2   704 – Lincoln Laboratory ETS, New Mexico MPS 112932
2004 08 08.31476 22 01 47.09 -21 30 23.0 19.3   704 – Lincoln Laboratory ETS, New Mexico MPS 112932
2004 08 08.32435 22 01 46.57 -21 30 27.8 19.6   704 – Lincoln Laboratory ETS, New Mexico MPS 112932
2004 08 08.33376 22 01 46.09 -21 30 32.4 19.5   704 – Lincoln Laboratory ETS, New Mexico MPS 112932
2004 08 22.61110 21 49 54.79 -23 26 11.1 18.3 R E12 – Siding Spring Survey MPS 112932
2004 08 22.61203 21 49 54.94 -23 26 12.1 18.8 R E12 – Siding Spring Survey MPS 112932
2004 08 22.62250 21 49 54.37 -23 26 16.2 18.5 R E12 – Siding Spring Survey MPS 112932
2004 08 22.62345 21 49 54.26 -23 26 16.2 18.6 R E12 – Siding Spring Survey MPS 112932
2004 08 22.63396 21 49 53.74 -23 26 20.7 18.9 R E12 – Siding Spring Survey MPS 112932
2004 08 22.63488 21 49 53.68 -23 26 21.1 18.8 R E12 – Siding Spring Survey MPS 112932
2004 08 22.64536 21 49 53.13 -23 26 25.6 19.0 R E12 – Siding Spring Survey MPS 112932
2004 08 22.64630 21 49 53.10 -23 26 25.9 18.6 R E12 – Siding Spring Survey MPS 112932
2004 08 23.20948 21 49 25.19 -23 30 24.2 17.9 R 699 – Lowell Observatory-LONEOS MPS 112932
2004 08 23.22409 21 49 24.39 -23 30 29.5   699 – Lowell Observatory-LONEOS MPS 112932
2004 08 23.23874 21 49 23.63 -23 30 35.6   699 – Lowell Observatory-LONEOS MPS 112932
2004 08 23.25340 21 49 22.82 -23 30 41.6   699 – Lowell Observatory-LONEOS MPS 112932
2005 10 29.48414 08 37 03.46 +19 18 36.2 22.1 V G96 – Mt. Lemmon Survey MPS 147379
2005 10 29.49050 08 37 03.82 +19 18 35.6 21.7 V G96 – Mt. Lemmon Survey MPS 147379
2005 10 29.49674 08 37 04.15 +19 18 36.1 22.1 V G96 – Mt. Lemmon Survey MPS 147379
2005 10 29.50309 08 37 04.51 +19 18 34.9 21.7 V G96 – Mt. Lemmon Survey MPS 147379
2005 12 27.41593 08 48 14.61 +21 09 04.8 20.5 V G96 – Mt. Lemmon Survey MPS 156477
2005 12 27.42400 08 48 14.25 +21 09 07.6 20.3 V G96 – Mt. Lemmon Survey MPS 156477
2005 12 27.43206 08 48 13.89 +21 09 09.9 20.4 V G96 – Mt. Lemmon Survey MPS 156477
2005 12 27.44015 08 48 13.57 +21 09 12.6 20.6 V G96 – Mt. Lemmon Survey MPS 156477
2005 12 29.39476 08 46 52.81 +21 20 14.4   691 – Steward Observatory, Kitt Peak-Spacewatch MPS 156477
2005 12 29.41205 08 46 52.02 +21 20 20.2   691 – Steward Observatory, Kitt Peak-Spacewatch MPS 156477
2005 12 29.42943 08 46 51.23 +21 20 26.7   691 – Steward Observatory, Kitt Peak-Spacewatch MPS 156477
2005 12 30.45303 08 46 06.24 +21 26 19.9 19.9 V G96 – Mt. Lemmon Survey MPS 157660
2005 12 30.46316 08 46 05.84 +21 26 23.7 20.1 V G96 – Mt. Lemmon Survey MPS 157660
2005 12 30.47197 08 46 05.41 +21 26 26.7 20.2 V G96 – Mt. Lemmon Survey MPS 157660
2005 12 30.48252 08 46 04.90 +21 26 30.2 20.4 V G96 – Mt. Lemmon Survey MPS 157660
2006 01 22.11849 08 24 05.82 +23 44 18.4 20.8 V 691 – Steward Observatory, Kitt Peak-Spacewatch MPS 160307
2006 01 22.13576 08 24 04.67 +23 44 24.3 20.5 V 691 – Steward Observatory, Kitt Peak-Spacewatch MPS 160307
2006 01 22.15304 08 24 03.50 +23 44 30.4 20.7 V 691 – Steward Observatory, Kitt Peak-Spacewatch MPS 160307
2006 01 28.26414 08 17 18.56 +24 18 16.4 20.1 V G96 – Mt. Lemmon Survey MPS 161678
2006 01 28.26944 08 17 18.24 +24 18 17.7 20.1 V G96 – Mt. Lemmon Survey MPS 161678
2006 01 28.27473 08 17 17.88 +24 18 19.0 20.2 V G96 – Mt. Lemmon Survey MPS 161678
2006 01 28.28002 08 17 17.52 +24 18 20.6 20.4 V G96 – Mt. Lemmon Survey MPS 161678
2007 04 24.31274 15 22 39.49 -09 36 56.3 20.2 V 691 – Steward Observatory, Kitt Peak-Spacewatch MPS 207999
2007 04 24.33036 15 22 38.57 -09 36 52.9 20.3 V 691 – Steward Observatory, Kitt Peak-Spacewatch MPS 207999
2007 04 24.34800 15 22 37.62 -09 36 49.3 20.3 V 691 – Steward Observatory, Kitt Peak-Spacewatch MPS 207999
2007 05 14.32426 15 02 57.04 -08 39 31.9 19.4 V G96 – Mt. Lemmon Survey MPS 208826
2007 05 14.33779 15 02 56.18 -08 39 30.3 19.3 V G96 – Mt. Lemmon Survey MPS 208826
2007 05 14.34453 15 02 55.75 -08 39 29.3 19.4 V G96 – Mt. Lemmon Survey MPS 208826
2007 06 22.26260 14 35 27.99 -09 03 43.2 20.0 V G96 – Mt. Lemmon Survey MPS 211353
2007 06 22.26910 14 35 27.92 -09 03 45.2 20.5 V G96 – Mt. Lemmon Survey MPS 211353
2007 06 22.27582 14 35 27.81 -09 03 46.4 19.8 V G96 – Mt. Lemmon Survey MPS 211353
2007 06 22.28237 14 35 27.74 -09 03 47.8 20.3 V G96 – Mt. Lemmon Survey MPS 211353
2008 10 26.39078 04 27 14.54 +14 10 34.7 19.2 V G96 – Mt. Lemmon Survey MPS 262901
2008 10 26.39632 04 27 14.32 +14 10 34.1 19.2 V G96 – Mt. Lemmon Survey MPS 262901
2008 10 26.40176 04 27 14.11 +14 10 33.9 19.4 V G96 – Mt. Lemmon Survey MPS 262901
2008 10 26.40727 04 27 13.86 +14 10 33.4 19.1 V G96 – Mt. Lemmon Survey MPS 262901
2008 11 02.31473 04 22 00.40 +14 03 00.1 19.2 V G96 – Mt. Lemmon Survey MPS 264454
2008 11 02.32505 04 21 59.79 +14 03 00.0 19.1 V G96 – Mt. Lemmon Survey MPS 264454
2008 11 02.33544 04 21 59.29 +14 02 58.7 19.1 V G96 – Mt. Lemmon Survey MPS 264454
2008 11 02.34577 04 21 58.64 +14 02 58.8 19.2 V G96 – Mt. Lemmon Survey MPS 264454
2008 11 18.32348 04 05 39.81 +13 49 25.1 19.4   704 – Lincoln Laboratory ETS, New Mexico MPS 266212
2008 11 18.33592 04 05 38.88 +13 49 25.2 19.3   704 – Lincoln Laboratory ETS, New Mexico MPS 266212
2008 11 18.34834 04 05 38.05 +13 49 24.3 19.2   704 – Lincoln Laboratory ETS, New Mexico MPS 266212
2008 11 18.36076 04 05 37.19 +13 49 25.2 19.6   704 – Lincoln Laboratory ETS, New Mexico MPS 266212
2008 11 18.37336 04 05 36.28 +13 49 24.5 19.7   704 – Lincoln Laboratory ETS, New Mexico MPS 266212
2008 11 21.23115 04 02 22.63 +13 48 08.3 19.2 V G96 – Mt. Lemmon Survey MPS 266212
2008 11 21.23670 04 02 22.27 +13 48 08.2 19.2 V G96 – Mt. Lemmon Survey MPS 266212
2008 11 21.24226 04 02 21.84 +13 48 08.1 19.2 V G96 – Mt. Lemmon Survey MPS 266212
2008 11 21.24782 04 02 21.48 +13 48 07.9 19.1 V G96 – Mt. Lemmon Survey MPS 266212
2008 11 30.24941 03 52 18.39 +13 47 47.8 19.7   704 – Lincoln Laboratory ETS, New Mexico MPS 268628
2008 11 30.26190 03 52 17.61 +13 47 48.1 20.3   704 – Lincoln Laboratory ETS, New Mexico MPS 268628
2008 11 30.27444 03 52 16.80 +13 47 47.3 20.1   704 – Lincoln Laboratory ETS, New Mexico MPS 268628
